CW7364 Weather Reports


Display with metric or nautical units.
time (UTC)temp
F
wind
direction
speed
MPH
gust
MPH
rain 1hr
in
rain 24hr
in
rain mn
in
humidity
%
barometer
mb
20260507224517 74 135 5.0 8.0 0.00 0.00 0.00 53 1013.9
20260507223557 74 180 3.0 6.0 0.00 0.00 0.00 53 1014.1
20260507222516 73 158 3.0 5.0 0.00 0.00 0.00 54 1014.1
20260507221517 74 180 5.0 8.0 0.00 0.00 0.00 51 1014.2
20260507220517 74 158 4.0 11.0 0.00 0.00 0.00 52 1014.3
20260507215516 74 90 4.0 9.0 0.00 0.00 0.00 52 1014.4
20260507214516 74 113 4.0 8.0 0.00 0.00 0.00 51 1014.4
20260507213517 75 45 3.0 7.0 0.00 0.00 0.00 49 1014.6
20260507212516 75 0 1.0 4.0 0.00 0.00 0.00 50 1014.7
20260507211517 75 68 2.0 7.0 0.00 0.00 0.00 51 1014.8
20260507210516 74 135 3.0 8.0 0.00 0.00 0.00 51 1014.9
20260507205516 74 23 2.0 5.0 0.00 0.00 0.00 50 1014.9
20260507204536 73 68 4.0 8.0 0.00 0.00 0.00 51 1015.0
20260507203516 74 270 1.0 5.0 0.00 0.00 0.00 51 1015.1
20260507202516 73 23 4.0 7.0 0.00 0.00 0.00 51 1015.1
20260507201516 73 45 4.0 9.0 0.00 0.00 0.00 50 1015.4
20260507200536 73 45 3.0 9.0 0.00 0.00 0.00 51 1015.6
20260507195536 73 68 2.0 6.0 0.00 0.00 0.00 52 1015.8
20260507194516 73 23 2.0 7.0 0.00 0.00 0.00 51 1015.8
20260507193516 72 90 4.0 7.0 0.00 0.00 0.00 50 1016.0
20260507192516 72 90 4.0 8.0 0.00 0.00 0.00 51 1016.1
20260507191516 71 90 2.0 7.0 0.00 0.00 0.00 53 1016.3
20260507190516 71 68 4.0 9.0 0.00 0.00 0.00 54 1016.4
20260507185516 70 68 5.0 11.0 0.00 0.00 0.00 54 1016.4
20260507184516 70 68 4.0 10.0 0.00 0.00 0.00 55 1016.5
20260507183536 70 45 5.0 12.0 0.00 0.00 0.00 56 1016.7
20260507182516 69 23 3.0 8.0 0.00 0.00 0.00 54 1016.8
20260507181516 68 45 5.0 13.0 0.00 0.00 0.00 55 1017.0
20260507180516 68 68 4.0 9.0 0.00 0.00 0.00 55 1017.4
20260507175517 68 90 5.0 9.0 0.00 0.00 0.00 57 1017.7
20260507174515 67 45 4.0 6.0 0.00 0.00 0.00 56 1017.9
20260507173535 67 45 3.0 9.0 0.00 0.00 0.00 55 1018.1
20260507172515 67 45 2.0 5.0 0.00 0.00 0.00 56 1018.4
20260507171516 66 90 2.0 7.0 0.00 0.00 0.00 60 1018.5
20260507170516 65 90 4.0 10.0 0.00 0.00 0.00 60 1018.6
20260507165516 66 45 3.0 7.0 0.00 0.00 0.00 61 1018.7
20260507164515 66 338 2.0 4.0 0.00 0.00 0.00 61 1018.8
20260507163535 65 45 2.0 8.0 0.00 0.00 0.00 60 1018.9
20260507162515 65 45 4.0 8.0 0.00 0.00 0.00 61 1019.0
20260507161515 64 68 3.0 10.0 0.00 0.00 0.00 62 1019.0
20260507160515 63 68 3.0 8.0 0.00 0.00 0.00 60 1019.1
20260507155535 64 90 3.0 7.0 0.00 0.00 0.00 62 1019.1
20260507154515 64 45 2.0 5.0 0.00 0.00 0.00 61 1019.2
20260507153517 64 90 4.0 8.0 0.00 0.00 0.00 62 1019.5
20260507152517 63 135 3.0 7.0 0.00 0.00 0.00 63 1019.4
20260507151537 62 45 4.0 6.0 0.00 0.00 0.00 66 1019.4
20260507150517 61 90 3.0 5.0 0.00 0.00 0.00 69 1019.5
20260507145517 60 68 2.0 4.0 0.00 0.00 0.00 71 1019.5
20260507144517 59 45 2.0 4.0 0.00 0.00 0.00 72 1019.6
20260507143537 59 45 2.0 4.0 0.00 0.00 0.00 74 1019.8
20260507142517 57 68 2.0 5.0 0.00 0.00 0.00 79 1019.8
20260507141517 56 0.0 3.0 0.00 0.00 0.00 83 1019.9
20260507140517 55 0.0 0.0 0.00 0.00 0.00 86 1019.9
20260507135517 55 0.0 0.0 0.00 0.00 0.00 88 1020.0
20260507134517 53 0.0 0.0 0.00 0.00 0.00 89 1020.0
20260507133537 52 0.0 0.0 0.00 0.00 0.00 90 1019.8
20260507132517 51 293 2.0 3.0 0.00 0.00 0.00 90 1019.6
20260507131517 50 293 2.0 3.0 0.00 0.00 0.00 90 1019.7
20260507130516 50 0.0 1.0 0.00 0.00 0.00 91 1019.8
20260507125516 49 0.0 2.0 0.00 0.00 0.00 91 1019.6
20260507124536 48 293 1.0 3.0 0.00 0.00 0.00 91 1019.4
20260507123517 48 293 2.0 4.0 0.00 0.00 0.00 91 1019.3
20260507122517 47 293 2.0 3.0 0.00 0.00 0.00 91 1019.1
20260507121516 46 293 2.0 3.0 0.00 0.00 0.00 90 1019.0
20260507120516 46 293 3.0 4.0 0.00 0.00 0.00 90 1018.8
20260507115516 46 293 3.0 4.0 0.00 0.00 0.00 90 1018.9
20260507114516 46 293 3.0 4.0 0.00 0.00 0.00 90 1018.9
20260507113516 46 293 4.0 4.0 0.00 0.00 0.00 89 1018.8
20260507112516 46 293 3.0 4.0 0.00 0.00 0.00 89 1018.9
20260507111536 46 293 4.0 5.0 0.00 0.00 0.00 89 1018.8
20260507110516 46 270 2.0 3.0 0.00 0.00 0.00 88 1018.8
20260507105537 47 203 1.0 3.0 0.00 0.00 0.00 88 1018.7
20260507104516 47 0.0 0.0 0.00 0.00 0.00 88 1018.3
20260507103516 48 203 1.0 2.0 0.00 0.00 0.00 88 1018.3
20260507102516 48 293 1.0 3.0 0.00 0.00 0.00 87 1018.6
20260507101517 48 315 2.0 4.0 0.00 0.00 0.00 86 1018.5
20260507100536 49 315 3.0 4.0 0.00 0.00 0.00 85 1018.3
20260507095536 50 293 2.0 3.0 0.00 0.00 0.00 85 1018.0
20260507094536 51 0 1.0 2.0 0.00 0.00 0.00 85 1017.9
20260507093516 51 23 2.0 4.0 0.00 0.00 0.00 86 1017.7
20260507092516 51 23 2.0 5.0 0.00 0.00 0.00 86 1017.5
20260507091516 51 23 1.0 4.0 0.00 0.00 0.00 86 1017.4
20260507090516 51 338 2.0 4.0 0.00 0.00 0.00 85 1017.4
20260507085536 51 23 1.0 3.0 0.00 0.00 0.00 85 1017.5
20260507084516 51 45 1.0 3.0 0.00 0.00 0.00 85 1017.5
20260507083516 52 0 1.0 4.0 0.00 0.00 0.00 85 1017.6
20260507082516 52 0.0 2.0 0.00 0.00 0.00 85 1017.6
20260507081516 52 45 1.0 3.0 0.00 0.00 0.00 85 1017.4
20260507080515 52 23 2.0 5.0 0.00 0.00 0.00 86 1017.3
20260507075516 52 45 2.0 5.0 0.00 0.00 0.00 86 1017.0
20260507074516 51 23 1.0 4.0 0.00 0.00 0.00 86 1017.2
20260507073515 51 23 1.0 4.0 0.00 0.00 0.00 86 1017.2
20260507072516 51 0.0 1.0 0.00 0.00 0.00 86 1017.3
20260507071516 52 0.0 2.0 0.00 0.00 0.00 86 1017.5
20260507070535 52 23 1.0 3.0 0.00 0.00 0.00 86 1017.4
20260507065515 52 0 1.0 4.0 0.00 0.00 0.00 86 1017.2
20260507064536 52 0.0 2.0 0.00 0.00 0.00 86 1017.3
20260507063515 51 0.0 1.0 0.00 0.00 0.00 87 1017.2
20260507062515 51 0.0 0.0 0.00 0.00 0.00 86 1017.1
20260507061535 51 0.0 0.0 0.00 0.00 0.00 86 1017.1
20260507060515 52 0.0 2.0 0.00 0.00 0.00 86 1017.1
20260507055517 52 23 1.0 3.0 0.00 0.00 0.00 86 1016.9
20260507054517 52 0.0 1.0 0.00 0.00 0.00 86 1016.7
20260507053517 52 0.0 2.0 0.00 0.00 0.00 86 1016.6
20260507052517 52 68 1.0 4.0 0.00 0.00 0.00 86 1016.4
20260507051517 52 0.0 0.0 0.00 0.00 0.00 86 1016.4
20260507050517 52 0.0 2.0 0.00 0.00 0.00 86 1016.4
20260507045516 52 68 1.0 3.0 0.00 0.00 0.00 85 1016.2
20260507044535 52 68 1.0 3.0 0.00 0.00 0.00 85 1016.1
20260507043515 52 90 1.0 3.0 0.00 0.00 0.00 85 1016.3
20260507042516 52 0.0 1.0 0.00 0.00 0.00 84 1016.5
20260507041515 52 0.0 2.0 0.00 0.00 0.00 84 1016.5
20260507040516 52 0.0 0.0 0.00 0.00 0.00 84 1016.5
20260507035515 53 0.0 2.0 0.00 0.00 0.00 83 1016.3
20260507034516 53 0.0 0.0 0.00 0.00 0.00 83 1016.3
20260507033515 53 113 1.0 2.0 0.00 0.00 0.00 82 1016.2
20260507032515 53 113 1.0 3.0 0.00 0.00 0.00 82 1016.2
20260507031515 54 0.0 0.0 0.00 0.00 0.00 81 1016.2
20260507030515 54 68 1.0 2.0 0.00 0.00 0.00 81 1016.1
20260507025515 55 0.0 2.0 0.00 0.00 0.00 80 1016.0
20260507024515 55 68 1.0 3.0 0.00 0.00 0.00 79 1015.9
20260507023517 56 45 1.0 3.0 0.00 0.00 0.00 78 1015.9
20260507022515 57 45 1.0 4.0 0.00 0.00 0.00 77 1015.8
20260507021517 57 45 2.0 4.0 0.00 0.00 0.00 76 1015.7
20260507020517 58 45 3.0 5.0 0.00 0.00 0.00 75 1015.5
20260507015517 59 45 4.0 8.0 0.00 0.00 0.00 74 1015.3
20260507014517 59 45 3.0 9.0 0.00 0.00 0.00 74 1015.1
20260507013517 59 45 3.0 7.0 0.00 0.00 0.00 73 1014.9
20260507012517 59 23 4.0 10.0 0.00 0.00 0.00 73 1014.7
20260507011517 60 23 3.0 6.0 0.00 0.00 0.00 73 1014.6
20260507010515 60 23 3.0 9.0 0.00 0.00 0.00 73 1014.5
20260507005517 60 23 3.0 8.0 0.00 0.00 0.00 72 1014.3
20260507004517 60 45 5.0 10.0 0.00 0.00 0.00 72 1014.2
20260507003517 61 45 6.0 11.0 0.00 0.00 0.00 72 1014.2
20260507002517 61 23 5.0 13.0 0.00 0.00 0.00 71 1014.0
20260507001537 62 23 5.0 11.0 0.00 0.00 0.00 71 1013.7
20260507000517 62 45 5.0 11.0 0.00 0.00 0.00 71 1013.6
20260506235516 62 23 3.0 9.0 0.00 0.00 0.00 71 1013.6
20260506234517 62 23 6.0 11.0 0.00 0.00 0.00 70 1013.5
20260506233517 63 45 6.0 12.0 0.00 0.00 0.00 69 1013.3
20260506232516 63 23 4.0 10.0 0.00 0.00 0.00 69 1013.2
20260506231516 63 23 6.0 11.0 0.00 0.00 0.00 69 1013.0
20260506230517 63 23 6.0 11.0 0.00 0.00 0.00 69 1013.0
20260506225516 64 23 5.0 13.0 0.00 0.00 0.00 68 1013.0